Total_Precipitation_Accumulation
0.00 0.00 0.00 0.00 0.00 0.00 0.00 0.00 0.00 0.03 0.05 0.06 0.02 0.05 0.04 0.07 0.18 0.62 0.32 0.24 0.17 0.15 0.03 0.01 0.01 0.00 0.02 0.06 0.08 0.06 0.04 0.02 0.05 0.08 0.16 0.27 0.33 0.50 0.51 0.37 0.33 0.54 0.69 0.54 0.40 0.37 0.49 0.45 0.27
0.00 0.00 0.00 0.00 0.00 0.00 0.00 0.00 0.00 0.08 0.34 0.39 0.24 0.24 0.24 0.24 0.07 0.18 0.35 0.36 0.14 0.06 0.02 0.01 0.00 0.00 0.00 0.01 0.01 0.03 0.03 0.02 0.02 0.03 0.07 0.28 0.35 0.33 0.31 0.44 0.41 0.43 0.47 0.59 0.50 0.75 1.15 0.97 0.72
0.00 0.00 0.00 0.00 0.00 0.00 0.00 0.00 0.01 0.06 0.22 0.28 0.09 0.07 0.22 0.28 0.23 0.33 0.44 0.45 0.22 0.11 0.07 0.03 0.05 0.02 0.00 0.00 0.02 0.02 0.02 0.01 0.00 0.01 0.05 0.12 0.12 0.25 0.24 0.44 0.33 0.19 0.18 0.45 0.60 0.71 0.93 0.83 0.98
0.00 0.00 0.00 0.00 0.00 0.00 0.00 0.01 0.16 0.18 0.11 0.03 0.08 0.12 0.24 0.34 0.48 0.48 0.40 0.62 0.35 0.22 0.24 0.14 0.28 0.13 0.03 0.03 0.02 0.03 0.01 0.00 0.00 0.00 0.01 0.07 0.08 0.13 0.18 0.39 0.46 0.51 0.44 0.77 1.15 1.76 1.28 0.72 1.05
0.00 0.00 0.00 0.00 0.00 0.01 0.01 0.02 0.10 0.08 0.07 0.06 0.03 0.14 0.19 0.25 0.21 0.40 0.71 0.77 0.73 0.84 0.75 0.60 0.48 0.38 0.19 0.08 0.06 0.02 0.00 0.00 0.00 0.00 0.00 0.00 0.01 0.03 0.05 0.07 0.19 0.52 1.17 1.32 1.12 1.24 1.41 0.98 0.29
0.00 0.00 0.00 0.00 0.00 0.03 0.05 0.15 0.32 0.26 0.10 0.04 0.07 0.17 0.18 0.18 0.18 0.39 0.70 0.84 1.03 1.35 0.95 0.85 0.78 0.79 0.52 0.18 0.04 0.00 0.00 0.00 0.00 0.00 0.00 0.00 0.00 0.00 0.00 0.01 0.04 0.07 0.10 0.15 0.16 0.14 0.11 0.16 0.09
0.00 0.00 0.00 0.00 0.01 0.00 0.03 0.18 0.34 0.17 0.06 0.03 0.03 0.12 0.27 0.21 0.32 0.68 0.95 0.85 0.89 1.09 1.17 1.18 0.81 0.75 0.34 0.01 0.00 0.00 0.00 0.00 0.00 0.00 0.00 0.01 0.01 0.00 0.00 0.00 0.00 0.00 0.03 0.06 0.09 0.08 0.02 0.01 0.01
0.00 0.00 0.00 0.00 0.01 0.02 0.06 0.29 0.38 0.13 0.11 0.04 0.09 0.14 0.12 0.14 0.25 0.32 0.92 0.82 0.92 1.18 0.77 0.73 0.50 0.40 0.09 0.00 0.00 0.00 0.00 0.00 0.00 0.00 0.00 0.00 0.00 0.00 0.00 0.01 0.01 0.01 0.03 0.05 0.07 0.08 0.03 0.02 0.00
0.00 0.00 0.00 0.01 0.02 0.05 0.17 0.40 0.32 0.13 0.07 0.07 0.09 0.26 0.27 0.10 0.08 0.51 0.57 0.70 0.86 1.98 2.32 1.13 0.48 0.36 0.10 0.00 0.00 0.00 0.00 0.00 0.00 0.00 0.00 0.00 0.02 0.00 0.00 0.02 0.03 0.04 0.03 0.04 0.06 0.09 0.05 0.01 0.00
0.00 0.00 0.00 0.00 0.05 0.22 0.30 0.46 0.19 0.16 0.38 0.27 0.62 0.30 0.38 0.19 0.12 0.32 0.72 0.63 1.25 1.31 1.22 0.76 0.48 0.13 0.01 0.00 0.00 0.02 0.02 0.00 0.00 0.01 0.00 0.00 0.02 0.01 0.00 0.01 0.04 0.07 0.06 0.06 0.13 0.15 0.08 0.04 0.04
0.00 0.00 0.00 0.01 0.04 0.10 0.07 0.06 0.02 0.02 0.01 0.03 0.40 0.29 0.19 0.20 0.30 0.36 0.61 0.52 0.72 0.68 0.59 0.46 0.20 0.10 0.00 0.00 0.00 0.02 0.01 0.00 0.00 0.00 0.02 0.02 0.01 0.04 0.05 0.11 0.16 0.12 0.12 0.18 0.18 0.37 0.41 0.34 0.20
0.00 0.00 0.00 0.00 0.03 0.04 0.00 0.03 0.01 0.00 0.02 0.07 0.08 0.15 0.20 0.13 0.23 0.39 0.56 0.36 0.15 0.22 0.27 0.24 0.14 0.02 0.00 0.00 0.00 0.00 0.00 0.00 0.01 0.04 0.05 0.10 0.16 0.21 0.13 0.08 0.10 0.08 0.09 0.10 0.19 0.39 0.33 0.26 0.31
0.00 0.00 0.00 0.03 0.01 0.00 0.00 0.00 0.07 0.03 0.02 0.26 0.13 0.28 0.38 0.31 0.25 0.38 0.87 0.28 0.17 0.14 0.07 0.07 0.02 0.00 0.00 0.00 0.00 0.01 0.02 0.05 0.10 0.13 0.17 0.25 0.40 0.44 0.30 0.20 0.03 0.01 0.01 0.04 0.04 0.07 0.12 0.14 0.13
0.00 0.00 0.00 0.00 0.00 0.00 0.01 0.00 0.01 0.02 0.22 0.63 0.37 0.34 0.47 0.35 0.44 0.90 0.36 0.04 0.03 0.02 0.01 0.01 0.00 0.00 0.00 0.00 0.02 0.03 0.05 0.06 0.09 0.12 0.15 0.14 0.19 0.21 0.12 0.08 0.06 0.04 0.02 0.01 0.03 0.03 0.04 0.05 0.06
0.00 0.00 0.00 0.00 0.00 0.00 0.01 0.01 0.01 0.02 0.01 0.11 0.22 0.21 0.22 0.04 0.01 0.06 0.02 0.00 0.00 0.00 0.00 0.00 0.01 0.01 0.06 0.02 0.00 0.00 0.00 0.01 0.04 0.09 0.08 0.10 0.14 0.12 0.08 0.04 0.02 0.01 0.00 0.00 0.00 0.00 0.02 0.04 0.07
0.00 0.00 0.00 0.00 0.00 0.00 0.00 0.02 0.02 0.03 0.04 0.08 0.10 0.07 0.02 0.01 0.00 0.00 0.00 0.00 0.00 0.00 0.00 0.04 0.21 0.36 0.32 0.22 0.03 0.02 0.02 0.05 0.13 0.11 0.08 0.11 0.11 0.07 0.02 0.00 0.01 0.00 0.00 0.00 0.00 0.00 0.00 0.01 0.04
0.00 0.00 0.00 0.00 0.00 0.00 0.00 0.00 0.01 0.01 0.03 0.05 0.04 0.00 0.00 0.00 0.00 0.00 0.00 0.00 0.00 0.00 0.01 0.21 0.53 0.79 0.89 0.65 0.56 0.69 0.65 0.36 0.17 0.06 0.02 0.02 0.01 0.00 0.00 0.00 0.00 0.00 0.00 0.00 0.00 0.00 0.00 0.00 0.00
0.00 0.00 0.00 0.00 0.00 0.00 0.00 0.00 0.00 0.01 0.01 0.01 0.01 0.00 0.00 0.00 0.00 0.00 0.00 0.00 0.00 0.01 0.06 0.42 0.76 0.96 1.09 1.66 1.49 0.86 0.27 0.08 0.02 0.00 0.00 0.00 0.00 0.00 0.00 0.00 0.00 0.00 0.00 0.00 0.00 0.00 0.00 0.00 0.00
0.00 0.00 0.00 0.00 0.00 0.00 0.00 0.00 0.02 0.02 0.02 0.13 0.01 0.00 0.00 0.00 0.00 0.00 0.00 0.02 0.04 0.08 0.27 0.70 0.92 1.06 0.90 0.63 0.23 0.05 0.01 0.01 0.00 0.00 0.00 0.00 0.00 0.00 0.00 0.00 0.00 0.00 0.00 0.00 0.00 0.00 0.00 0.00 0.00
0.00 0.00 0.00 0.00 0.00 0.00 0.00 0.00 0.01 0.02 0.02 0.05 0.02 0.01 0.00 0.00 0.00 0.01 0.03 0.09 0.13 0.26 0.36 0.39 0.22 0.16 0.04 0.01 0.00 0.00 0.00 0.00 0.00 0.00 0.00 0.00 0.00 0.00 0.00 0.00 0.00 0.00 0.00 0.00 0.00 0.00 0.00 0.00 0.00
0.00 0.00 0.00 0.00 0.00 0.00 0.00 0.00 0.00 0.01 0.02 0.02 0.01 0.00 0.00 0.00 0.00 0.02 0.08 0.12 0.14 0.14 0.17 0.06 0.04 0.04 0.01 0.02 0.03 0.02 0.00 0.00 0.00 0.00 0.00 0.00 0.00 0.00 0.00 0.00 0.00 0.00 0.00 0.00 0.00 0.00 0.00 0.00 0.00
0.00 0.00 0.00 0.00 0.00 0.00 0.00 0.01 0.02 0.00 0.00 0.01 0.01 0.00 0.01 0.01 0.01 0.01 0.01 0.01 0.02 0.01 0.03 0.02 0.06 0.09 0.06 0.06 0.09 0.04 0.00 0.00 0.00 0.00 0.00 0.00 0.00 0.00 0.00 0.00 0.00 0.00 0.00 0.00 0.00 0.00 0.00 0.00 0.00
0.03 0.00 0.00 0.00 0.00 0.01 0.01 0.00 0.01 0.00 0.00 0.00 0.00 0.01 0.00 0.01 0.01 0.00 0.01 0.00 0.00 0.03 0.03 0.09 0.12 0.10 0.04 0.05 0.04 0.00 0.00 0.00 0.00 0.00 0.00 0.00 0.00 0.00 0.00 0.00 0.00 0.00 0.00 0.00 0.00 0.00 0.00 0.00 0.00
0.00 0.00 0.00 0.00 0.00 0.00 0.01 0.00 0.00 0.00 0.01 0.01 0.00 0.00 0.00 0.01 0.01 0.01 0.01 0.01 0.02 0.10 0.15 0.13 0.08 0.04 0.02 0.03 0.00 0.00 0.00 0.00 0.00 0.00 0.00 0.00 0.00 0.00 0.00 0.00 0.00 0.00 0.00 0.00 0.00 0.00 0.00 0.00 0.01
0.00 0.00 0.00 0.06 0.03 0.02 0.04 0.05 0.02 0.01 0.01 0.05 0.00 0.00 0.00 0.01 0.00 0.00 0.02 0.06 0.06 0.13 0.14 0.10 0.05 0.02 0.01 0.01 0.00 0.00 0.00 0.00 0.00 0.00 0.00 0.00 0.00 0.00 0.00 0.01 0.01 0.00 0.00 0.00 0.01 0.02 0.03 0.06 0.11
0.00 0.00 0.00 0.02 0.02 0.02 0.02 0.01 0.00 0.00 0.00 0.00 0.00 0.00 0.00 0.00 0.00 0.00 0.02 0.04 0.06 0.12 0.07 0.05 0.00 0.00 0.00 0.00 0.02 0.01 0.00 0.00 0.00 0.00 0.00 0.00 0.00 0.01 0.02 0.01 0.00 0.00 0.01 0.02 0.08 0.14 0.22 0.36 0.50
0.02 0.04 0.01 0.00 0.00 0.00 0.00 0.00 0.00 0.00 0.00 0.00 0.00 0.00 0.00 0.00 0.00 0.00 0.01 0.02 0.04 0.02 0.01 0.00 0.00 0.00 0.00 0.00 0.00 0.00 0.00 0.00 0.00 0.00 0.01 0.03 0.02 0.02 0.00 0.00 0.01 0.04 0.10 0.16 0.20 0.25 0.33 0.39 0.35
0.00 0.02 0.02 0.01 0.00 0.01 0.00 0.00 0.00 0.00 0.00 0.00 0.00 0.00 0.00 0.00 0.00 0.00 0.00 0.01 0.01 0.00 0.00 0.00 0.00 0.00 0.00 0.00 0.00 0.00 0.00 0.00 0.00 0.01 0.02 0.02 0.02 0.01 0.01 0.04 0.12 0.18 0.17 0.13 0.14 0.15 0.15 0.16 0.16
0.00 0.00 0.00 0.00 0.00 0.04 0.07 0.01 0.00 0.00 0.01 0.00 0.00 0.00 0.00 0.00 0.00 0.00 0.00 0.00 0.00 0.00 0.00 0.00 0.00 0.00 0.00 0.00 0.00 0.00 0.00 0.00 0.01 0.02 0.03 0.03 0.01 0.01 0.05 0.09 0.08 0.07 0.09 0.09 0.10 0.09 0.07 0.06 0.04
0.00 0.00 0.01 0.01 0.02 0.01 0.03 0.01 0.00 0.00 0.00 0.00 0.00 0.00 0.00 0.00 0.00 0.00 0.00 0.00 0.00 0.00 0.00 0.00 0.00 0.00 0.00 0.00 0.00 0.00 0.00 0.02 0.06 0.07 0.03 0.00 0.00 0.01 0.02 0.04 0.09 0.11 0.09 0.07 0.05 0.03 0.01 0.00 0.00